Lacrosse 4 Rocket - Orbit

View from above orbital plane
View from above orbital plane
View from above satellite
View from above satellite

Ground track
Ground track

The orbit data is extracted from the following two-line orbital elements,

1 26474U 00047B   13138.84051565  .00002142  00000-0  21884-3 0  3050
2 26474 067.9973 341.3374 0061369 161.1330 199.2105 14.91253952692781
Epoch (UTC): 18 May 2013 20:10:20
Eccentricity: 0.0061369
inclination: 67.9973°
perigee height: 551 km
apogee height: 637 km
right ascension of ascending node: 341.3374°
argument of perigee: 161.1330°
revolutions per day: 14.91253952
mean anomaly at epoch: 199.2105°
orbit number at epoch: 69278

The dashed part of the orbit path shows where the satellite is in the earth's shadow,  

Developed and maintained by Chris Peat, Heavens-Above GmbH. Please read the updated FAQ before sending e-mail. Imprint. DLR